• In Russia
  • List of Countries
  • For 7 days
  • Water Temperature
  • Satellite Maps
  • Weather Map
  • Weather Widgets
  • user-avatar
    Login

    Hourly Weather Jaryszki

    Today, 15 August, Wednesday

    Time Temperature Precipitation Wind Pressure Humidity
    00:00 +19°C° 0 mm 3 mps 752 mmHg 75%
    01:00 +19°C° 0 mm 3 mps 752 mmHg 80%
    02:00 +18°C° 0 mm 3 mps 752 mmHg 83%
    03:00 +18°C° 0 mm 3 mps 753 mmHg 86%
    04:00 +18°C° 0 mm 3 mps 753 mmHg 89%
    05:00 +18°C° 0 mm 4 mps 753 mmHg 87%
    06:00 +19°C° 0 mm 4 mps 754 mmHg 85%
    07:00 +20°C° 0 mm 4 mps 754 mmHg 83%
    08:00 +20°C° 0.2 mm 5 mps 754 mmHg 80%
    09:00 +21°C° 0.2 mm 5 mps 755 mmHg 77%
    10:00 +21°C° 0.2 mm 5 mps 755 mmHg 75%
    11:00 +22°C° 0.1 mm 5 mps 755 mmHg 69%
    12:00 +23°C° 0.1 mm 5 mps 755 mmHg 64%
    13:00 +25°C° 0 mm 5 mps 755 mmHg 60%
    14:00 +25°C° 0.1 mm 5 mps 755 mmHg 58%
    15:00 +25°C° 0.1 mm 4 mps 756 mmHg 56%
    16:00 +26°C° 0.1 mm 4 mps 756 mmHg 53%
    17:00 +25°C° 0 mm 3 mps 756 mmHg 58%
    18:00 +22°C° 0 mm 3 mps 756 mmHg 63%
    19:00 +21°C° 0 mm 2 mps 756 mmHg 68%
    20:00 +20°C° 0 mm 2 mps 756 mmHg 71%
    21:00 +21°C° 0 mm 1 mps 757 mmHg 74%
    22:00 +20°C° 0 mm 1 mps 757 mmHg 77%
    23:00 +19°C° 0 mm 1 mps 757 mmHg 79%

    Tomorrow, 16 August, Thursday

    Time Temperature Precipitation Wind Pressure Humidity
    00:00 +19°C° 0 mm 1 mps 757 mmHg 81%
    01:00 +16°C° 0 mm 0 mps 757 mmHg 82%
    02:00 +16°C° 0 mm 0 mps 757 mmHg 83%
    03:00 +16°C° 0 mm 0 mps 757 mmHg 84%
    04:00 +16°C° 0 mm 0 mps 757 mmHg 85%
    05:00 +17°C° 0 mm 0 mps 757 mmHg 80%
    06:00 +20°C° 0 mm 1 mps 758 mmHg 75%
    07:00 +21°C° 0 mm 1 mps 758 mmHg 71%
    08:00 +23°C° 0 mm 1 mps 758 mmHg 65%
    09:00 +24°C° 0 mm 1 mps 758 mmHg 59%
    10:00 +26°C° 0 mm 1 mps 757 mmHg 54%
    11:00 +26°C° 0 mm 1 mps 757 mmHg 51%
    12:00 +27°C° 0 mm 1 mps 757 mmHg 48%
    13:00 +28°C° 0 mm 1 mps 757 mmHg 45%
    14:00 +27°C° 0 mm 1 mps 756 mmHg 46%
    15:00 +27°C° 0 mm 1 mps 756 mmHg 47%
    16:00 +27°C° 0 mm 1 mps 756 mmHg 48%
    17:00 +26°C° 0 mm 1 mps 756 mmHg 52%
    18:00 +25°C° 0 mm 1 mps 756 mmHg 55%
    19:00 +24°C° 0 mm 1 mps 755 mmHg 59%
    20:00 +23°C° 0 mm 1 mps 756 mmHg 60%
    21:00 +22°C° 0 mm 1 mps 756 mmHg 61%
    22:00 +22°C° 0 mm 1 mps 756 mmHg 62%
    23:00 +21°C° 0 mm 1 mps 756 mmHg 64%

    Day after tomorrow, 17 August, Friday

    Time Temperature Precipitation Wind Pressure Humidity
    00:00 +20°C° 0 mm 2 mps 756 mmHg 66%
    01:00 +19°C° 0 mm 2 mps 756 mmHg 67%
    02:00 +19°C° 0 mm 2 mps 755 mmHg 69%
    03:00 +19°C° 0 mm 2 mps 755 mmHg 71%
    04:00 +18°C° 0 mm 2 mps 755 mmHg 73%
    05:00 +19°C° 0 mm 2 mps 755 mmHg 71%
    06:00 +20°C° 0 mm 3 mps 755 mmHg 69%
    07:00 +21°C° 0 mm 3 mps 755 mmHg 68%
    08:00 +24°C° 0 mm 3 mps 755 mmHg 62%
    09:00 +26°C° 0 mm 3 mps 755 mmHg 56%
    10:00 +28°C° 0 mm 3 mps 755 mmHg 51%
    11:00 +28°C° 0 mm 3 mps 755 mmHg 49%
    12:00 +28°C° 0 mm 3 mps 754 mmHg 48%
    13:00 +29°C° 0 mm 3 mps 754 mmHg 46%
    14:00 +29°C° 0 mm 2 mps 754 mmHg 46%
    15:00 +29°C° 0 mm 2 mps 754 mmHg 45%
    16:00 +29°C° 0 mm 2 mps 754 mmHg 45%
    17:00 +28°C° 0 mm 2 mps 754 mmHg 50%
    18:00 +27°C° 0 mm 2 mps 754 mmHg 54%
    19:00 +26°C° 0 mm 2 mps 754 mmHg 59%
    20:00 +25°C° 0 mm 2 mps 754 mmHg 60%
    21:00 +24°C° 0 mm 2 mps 754 mmHg 61%
    22:00 +22°C° 0 mm 3 mps 754 mmHg 63%
    23:00 +23°C° 0 mm 2 mps 754 mmHg 64%

    18 August, Saturday

    Time Temperature Precipitation Wind Pressure Humidity
    00:00 +21°C° 0 mm 2 mps 754 mmHg 65%
    01:00 +21°C° 0 mm 2 mps 754 mmHg 66%
    02:00 +21°C° 0 mm 2 mps 754 mmHg 67%
    03:00 +21°C° 0 mm 2 mps 754 mmHg 69%
    04:00 +20°C° 0 mm 2 mps 754 mmHg 70%
    05:00 +22°C° 0 mm 1 mps 755 mmHg 69%
    06:00 +23°C° 0 mm 1 mps 755 mmHg 68%
    07:00 +24°C° 0 mm 1 mps 755 mmHg 66%
    08:00 +25°C° 0.1 mm 1 mps 755 mmHg 62%
    09:00 +27°C° 0.1 mm 1 mps 756 mmHg 57%
    10:00 +28°C° 0.1 mm 1 mps 756 mmHg 53%
    11:00 +29°C° 0.1 mm 1 mps 756 mmHg 50%
    12:00 +29°C° 0.1 mm 1 mps 756 mmHg 47%
    13:00 +30°C° 0.1 mm 2 mps 756 mmHg 44%
    14:00 +30°C° 0.1 mm 2 mps 756 mmHg 46%
    15:00 +30°C° 0.1 mm 3 mps 756 mmHg 47%
    16:00 +29°C° 0.1 mm 3 mps 756 mmHg 48%
    17:00 +28°C° 0.1 mm 3 mps 756 mmHg 55%
    18:00 +26°C° 0.1 mm 3 mps 756 mmHg 62%
    19:00 +25°C° 0.1 mm 3 mps 756 mmHg 69%
    20:00 +24°C° 0.3 mm 3 mps 757 mmHg 74%
    21:00 +22°C° 0.3 mm 3 mps 757 mmHg 79%
    22:00 +20°C° 0.3 mm 3 mps 757 mmHg 84%
    23:00 +20°C° 0 mm 3 mps 758 mmHg 84%

    19 August, Sunday

    Time Temperature Precipitation Wind Pressure Humidity
    00:00 +19°C° 0 mm 2 mps 758 mmHg 85%
    01:00 +19°C° 0 mm 2 mps 758 mmHg 85%
    02:00 +18°C° 0 mm 2 mps 758 mmHg 84%
    03:00 +19°C° 0 mm 1 mps 758 mmHg 82%
    04:00 +18°C° 0 mm 1 mps 758 mmHg 81%
    05:00 +19°C° 0 mm 1 mps 759 mmHg 76%
    06:00 +20°C° 0 mm 1 mps 759 mmHg 72%
    07:00 +21°C° 0 mm 1 mps 759 mmHg 67%
    08:00 +23°C° 0 mm 2 mps 759 mmHg 60%
    09:00 +24°C° 0 mm 2 mps 759 mmHg 54%
    10:00 +26°C° 0 mm 2 mps 759 mmHg 47%
    11:00 +27°C° 0 mm 2 mps 759 mmHg 44%
    12:00 +27°C° 0 mm 3 mps 759 mmHg 42%
    13:00 +28°C° 0 mm 3 mps 758 mmHg 39%
    14:00 +28°C° 0 mm 3 mps 758 mmHg 39%
    15:00 +28°C° 0 mm 3 mps 758 mmHg 39%
    16:00 +28°C° 0 mm 3 mps 758 mmHg 39%
    17:00 +27°C° 0 mm 2 mps 758 mmHg 45%
    18:00 +26°C° 0 mm 2 mps 758 mmHg 50%
    19:00 +24°C° 0 mm 1 mps 758 mmHg 55%
    20:00 +23°C° 0 mm 1 mps 758 mmHg 58%
    21:00 +23°C° 0 mm 1 mps 758 mmHg 61%
    22:00 +22°C° 0 mm 1 mps 758 mmHg 64%
    23:00 +21°C° 0 mm 1 mps 758 mmHg 66%

    20 August, Monday

    Time Temperature Precipitation Wind Pressure Humidity
    00:00 +21°C° 0 mm 1 mps 758 mmHg 69%
    01:00 +20°C° 0 mm 1 mps 758 mmHg 71%
    02:00 +20°C° 0 mm 1 mps 758 mmHg 72%
    03:00 +20°C° 0 mm 1 mps 758 mmHg 73%
    04:00 +19°C° 0 mm 1 mps 758 mmHg 74%
    05:00 +20°C° 0 mm 1 mps 758 mmHg 70%
    06:00 +20°C° 0 mm 2 mps 758 mmHg 67%
    07:00 +21°C° 0 mm 2 mps 758 mmHg 63%
    08:00 +24°C° 0 mm 2 mps 758 mmHg 57%
    09:00 +26°C° 0 mm 2 mps 757 mmHg 50%
    10:00 +28°C° 0 mm 2 mps 757 mmHg 43%
    11:00 +29°C° 0 mm 3 mps 757 mmHg 41%
    12:00 +30°C° 0 mm 3 mps 757 mmHg 38%
    13:00 +31°C° 0 mm 3 mps 756 mmHg 35%
    14:00 +31°C° 0 mm 3 mps 756 mmHg 34%
    15:00 +31°C° 0 mm 3 mps 756 mmHg 34%
    16:00 +31°C° 0 mm 3 mps 755 mmHg 33%
    17:00 +30°C° 0 mm 2 mps 755 mmHg 38%
    18:00 +28°C° 0 mm 2 mps 755 mmHg 42%
    19:00 +26°C° 0 mm 1 mps 755 mmHg 47%
    20:00 +26°C° 0 mm 2 mps 755 mmHg 49%
    21:00 +25°C° 0 mm 2 mps 755 mmHg 52%
    22:00 +24°C° 0 mm 2 mps 756 mmHg 55%
    23:00 +23°C° 0 mm 2 mps 756 mmHg 60%
    Show more